Вернуться в каталог

COSMOS 1275 DEB

АктивенPO
NORAD 12664·DEBRIS·🇷🇺 Russia

Запущен Jun 4, 1981 с Plesetsk Cosmodrome

Loading…

Ближайшие Пролёты (ближайшие 24 часа)

TLE

СвежийSource: Space-Track

Эпоха: Sep 14, 2026, 15:02 UTC

1 12664U 81053U   26257.62667356  .00000324  00000-0  31884-3 0  9995
2 12664  82.8931 204.4608 0080165  31.1022 141.6779 13.74538613254495

Отслеживайте COSMOS 1275 DEB в реальном времени с AllMySat

Download on the App Store